Temp
12 12 12 12 12 12 12 11 11 11 11 11 10 10 9 9 9 9 9 9 8 8 8 8 7 7 7 7 6 6 6 6 6 5 6 7 7 8 8 9 9 10 10
13 13 13 12 12 11 11 11 11 11 10 10 9 9 9 9 8 8 8 8 8 8 8 7 6 6 6 6 6 5 5 5 4 4 5 5 6 6 7 8 8 9 9
13 12 12 11 11 11 11 11 10 9 9 9 9 8 7 7 8 8 7 7 7 7 7 7 6 5 5 5 4 4 4 4 2 3 3 4 4 4 6 6 7 8 8
12 12 12 11 11 11 10 9 9 9 8 8 7 7 7 6 6 6 6 6 7 6 6 6 6 5 5 4 4 2 2 2 1 1 2 2 2 2 3 4 6 6 7
11 12 11 10 9 8 8 8 8 7 7 7 6 6 6 6 5 5 5 6 6 5 5 5 4 4 3 3 2 2 2 1 1 0 1 1 0 1 1 1 4 6 6
11 10 9 9 8 7 7 7 7 7 6 5 5 4 4 4 4 5 4 5 4 4 4 3 3 3 2 2 2 1 1 0 1 1 -0 -1 -0 0 -0 0 0 3 6
10 9 9 8 8 8 7 7 6 6 5 5 5 5 4 3 3 4 3 3 4 3 4 3 2 2 2 2 1 1 0 -0 -0 0 0 1 -1 -1 -1 -1 -0 -0 2
9 9 7 7 8 8 7 7 6 6 5 4 3 3 3 3 3 3 3 3 3 2 2 2 2 1 1 0 1 0 0 0 -0 -0 -0 0 0 -1 -2 -1 -1 -1 -1
9 8 8 8 7 7 7 6 5 4 4 3 3 2 2 2 2 2 2 2 2 1 1 1 1 1 0 0 0 -0 -0 -1 -1 -1 -1 -1 -1 -2 -2 -2 -2 -1 -1
9 8 8 7 7 6 5 4 4 4 3 3 2 2 2 2 1 0 0 1 1 1 1 1 0 -0 -0 -0 -0 -0 -1 -1 -2 -2 -2 -2 -2 -2 -2 -2 -2 -2 -2
7 7 7 6 5 5 4 4 4 3 3 3 2 2 1 1 1 0 -0 -1 -0 -0 0 0 0 -0 -1 -1 -1 -1 -1 -2 -2 -2 -2 -3 -3 -3 -3 -3 -3 -3 -2
7 7 6 5 5 4 4 4 3 3 2 2 2 1 1 -0 -0 -1 -1 -1 -1 -1 -1 -1 -2 -1 -2 -1 -2 -2 -2 -2 -2 -3 -3 -3 -4 -4 -4 -4 -3 -3 -3
7 7 6 6 5 5 4 3 2 2 2 1 1 1 0 -0 -1 -2 -2 -2 -2 -2 -2 -2 -2 -2 -2 -2 -2 -2 -2 -3 -3 -3 -3 -4 -4 -4 -4 -4 -4 -4 -4
6 6 5 5 4 4 3 2 2 1 1 1 0 0 -0 -1 -2 -2 -3 -3 -3 -3 -2 -3 -3 -3 -3 -3 -3 -3 -3 -3 -3 -4 -4 -4 -4 -5 -5 -5 -4 -4 -4
5 4 4 4 3 3 2 1 1 0 0 0 -0 -1 -1 -2 -2 -2 -3 -3 -4 -4 -3 -3 -4 -4 -4 -4 -4 -4 -4 -4 -4 -4 -4 -4 -5 -5 -5 -5 -5 -5 -5
4 4 3 3 2 1 0 0 -0 -0 -0 -1 -1 -1 -2 -2 -3 -3 -3 -4 -5 -5 -5 -4 -5 -5 -5 -5 -5 -5 -5 -5 -5 -5 -5 -6 -6 -6 -6 -6 -5 -5 -5
3 3 2 2 1 0 -0 -0 -1 -1 -1 -1 -2 -2 -3 -3 -4 -4 -4 -5 -5 -5 -5 -5 -5 -5 -5 -5 -6 -6 -6 -6 -6 -6 -7 -7 -7 -6 -6 -6 -6 -6 -5
3 2 2 1 0 -0 -1 -1 -1 -1 -2 -3 -3 -4 -4 -4 -4 -5 -5 -5 -5 -5 -5 -6 -6 -6 -6 -7 -8 -7 -7 -7 -7 -7 -7 -7 -7 -7 -7 -7 -6 -6 -6
2 2 1 1 -0 -1 -1 -1 -1 -2 -3 -3 -4 -4 -4 -5 -5 -5 -5 -5 -5 -6 -6 -7 -8 -8 -8 -8 -9 -9 -8 -8 -8 -8 -8 -8 -7 -7 -7 -7 -7 -7 -6
1 1 0 -0 -1 -1 -1 -1 -2 -3 -3 -4 -4 -5 -5 -5 -5 -5 -5 -6 -6 -7 -8 -8 -9 -9 -10 -10 -9 -9 -9 -9 -9 -8 -8 -8 -8 -7 -7 -7 -7 -7 -6
1 0 -0 -0 -1 -1 -1 -2 -3 -4 -4 -5 -5 -5 -6 -6 -5 -6 -6 -7 -7 -8 -9 -9 -9 -10 -10 -10 -10 -10 -10 -10 -9 -9 -9 -8 -8 -8 -7 -7 -7 -7 -7
0 -0 -0 -1 -1 -1 -2 -3 -4 -4 -5 -5 -6 -5 -6 -6 -6 -6 -7 -7 -8 -9 -9 -9 -10 -11 -11 -11 -10 -11 -10 -10 -10 -9 -10 -8 -8 -8 -7 -7 -7 -7 -7
-1 -1 -1 -2 -2 -2 -2 -3 -4 -4 -5 -5 -6 -6 -6 -6 -7 -7 -7 -8 -8 -8 -9 -10 -11 -11 -11 -11 -11 -11 -11 -11 -10 -10 -10 -9 -8 -8 -7 -7 -7 -7 -7
-1 -1 -2 -2 -3 -3 -3 -4 -5 -5 -5 -6 -6 -6 -6 -7 -7 -8 -8 -8 -9 -9 -9 -10 -12 -11 -11 -11 -11 -11 -11 -11 -10 -9 -9 -9 -8 -8 -7 -7 -7 -7 -7
-2 -2 -2 -3 -3 -3 -4 -4 -5 -6 -6 -6 -6 -6 -7 -7 -8 -8 -9 -9 -9 -8 -9 -10 -11 -11 -11 -11 -11 -11 -11 -11 -10 -10 -9 -9 -9 -8 -7 -7 -7 -7 -7
-3 -3 -3 -4 -4 -4 -5 -6 -6 -6 -6 -7 -7 -7 -8 -8 -9 -9 -9 -9 -9 -9 -9 -10 -10 -11 -11 -11 -11 -11 -11 -11 -11 -10 -9 -9 -9 -9 -8 -8 -7 -8 -7
Height
1574 1578 1577 1578 1579 1579 1579 1578 1579 1578 1577 1576 1577 1575 1575 1573 1571 1569 1568 1566 1564 1562 1560 1556 1554 1553 1552 1551 1551 1548 1547 1546 1546 1546 1546 1545 1544 1543 1543 1542 1542 1541 1541
1573 1575 1576 1576 1576 1577 1577 1576 1576 1575 1573 1573 1573 1573 1572 1569 1567 1565 1564 1564 1560 1558 1556 1553 1551 1549 1548 1549 1548 1546 1544 1543 1543 1543 1542 1541 1540 1539 1539 1539 1539 1539 1539
1572 1572 1574 1575 1574 1574 1574 1573 1574 1572 1570 1569 1569 1569 1566 1565 1564 1561 1560 1559 1557 1554 1552 1549 1548 1546 1545 1545 1544 1543 1543 1541 1541 1539 1539 1538 1536 1535 1535 1534 1534 1534 1535
1571 1572 1572 1573 1573 1571 1570 1570 1569 1568 1566 1565 1565 1564 1562 1561 1560 1558 1555 1555 1554 1550 1549 1546 1544 1543 1542 1541 1543 1540 1540 1539 1538 1537 1535 1534 1533 1532 1531 1530 1530 1529 1529
1570 1570 1570 1570 1569 1568 1567 1567 1566 1564 1562 1561 1560 1559 1558 1557 1556 1555 1552 1551 1550 1548 1547 1545 1542 1540 1539 1539 1540 1538 1538 1536 1535 1534 1533 1532 1530 1529 1527 1526 1525 1525 1524
1567 1567 1566 1567 1566 1565 1565 1563 1562 1561 1559 1557 1556 1555 1554 1553 1552 1552 1551 1549 1548 1548 1545 1543 1540 1538 1538 1537 1536 1536 1535 1533 1532 1531 1529 1528 1527 1526 1525 1523 1521 1519 1520
1566 1566 1565 1565 1564 1563 1562 1561 1559 1558 1556 1553 1551 1549 1547 1547 1548 1548 1547 1546 1545 1544 1543 1541 1538 1536 1534 1534 1533 1531 1530 1530 1529 1528 1526 1525 1524 1522 1521 1520 1518 1515 1513
1564 1563 1564 1563 1563 1563 1562 1560 1558 1556 1554 1552 1550 1547 1543 1542 1543 1545 1545 1543 1542 1540 1539 1537 1536 1533 1533 1531 1530 1528 1527 1526 1525 1524 1523 1522 1520 1518 1517 1516 1515 1513 1510
1562 1562 1562 1561 1561 1560 1559 1557 1555 1553 1552 1551 1550 1549 1544 1541 1538 1538 1539 1538 1537 1536 1535 1533 1532 1530 1529 1528 1526 1524 1522 1520 1520 1518 1518 1517 1516 1514 1513 1512 1511 1509 1507
1560 1560 1560 1559 1558 1556 1554 1554 1553 1552 1550 1548 1547 1547 1546 1542 1536 1531 1532 1533 1533 1530 1529 1528 1526 1525 1524 1522 1522 1519 1517 1514 1513 1512 1512 1511 1510 1509 1508 1507 1506 1505 1503
1559 1558 1557 1556 1555 1554 1552 1551 1550 1549 1547 1545 1543 1541 1539 1537 1535 1531 1524 1525 1525 1526 1525 1523 1521 1520 1518 1517 1516 1513 1512 1509 1508 1507 1505 1505 1504 1503 1502 1501 1500 1499 1498
1556 1554 1553 1553 1552 1551 1550 1548 1546 1544 1542 1540 1538 1536 1534 1532 1529 1527 1524 1521 1519 1519 1519 1518 1517 1516 1515 1513 1511 1509 1508 1505 1503 1502 1500 1499 1498 1497 1496 1495 1494 1493 1492
1552 1551 1550 1550 1548 1547 1545 1543 1541 1540 1538 1536 1533 1531 1529 1527 1525 1522 1520 1517 1514 1514 1513 1513 1513 1512 1510 1508 1506 1504 1502 1500 1497 1496 1495 1493 1492 1490 1488 1487 1486 1485 1484
1549 1547 1546 1546 1544 1542 1541 1539 1537 1535 1532 1530 1528 1525 1523 1521 1520 1518 1516 1514 1511 1509 1506 1506 1507 1506 1504 1502 1500 1498 1496 1493 1491 1489 1487 1486 1484 1482 1480 1479 1478 1477 1476
1545 1544 1543 1542 1540 1538 1536 1534 1532 1530 1527 1525 1523 1520 1518 1515 1514 1512 1511 1510 1508 1505 1499 1500 1499 1500 1498 1495 1493 1491 1488 1486 1483 1481 1479 1477 1475 1473 1472 1470 1469 1468 1468
1541 1540 1539 1537 1536 1534 1532 1529 1527 1525 1523 1520 1518 1515 1513 1512 1510 1508 1507 1505 1504 1502 1496 1496 1494 1492 1490 1488 1486 1484 1481 1477 1475 1472 1469 1466 1465 1464 1462 1461 1459 1459 1458
1537 1536 1535 1533 1531 1529 1527 1525 1523 1521 1519 1515 1512 1510 1508 1507 1505 1504 1501 1500 1499 1497 1494 1489 1488 1486 1483 1481 1478 1475 1472 1468 1465 1463 1460 1458 1456 1454 1453 1452 1450 1449 1449
1534 1532 1530 1528 1527 1524 1523 1521 1518 1515 1511 1508 1506 1504 1503 1503 1501 1499 1497 1497 1495 1493 1490 1484 1481 1478 1475 1473 1470 1466 1464 1461 1458 1455 1453 1451 1449 1447 1445 1443 1442 1441 1440
1531 1528 1526 1524 1521 1519 1517 1515 1513 1510 1507 1504 1502 1500 1499 1499 1497 1495 1493 1492 1489 1487 1484 1480 1474 1472 1468 1464 1461 1459 1456 1453 1451 1448 1446 1444 1441 1439 1437 1435 1434 1433 1432
1526 1524 1522 1519 1516 1513 1511 1509 1506 1504 1502 1500 1498 1497 1495 1494 1492 1491 1489 1486 1483 1481 1478 1474 1469 1464 1461 1458 1456 1452 1448 1447 1443 1442 1439 1437 1434 1432 1430 1428 1426 1425 1424
1521 1518 1517 1513 1511 1509 1506 1503 1500 1499 1497 1495 1494 1492 1491 1490 1487 1486 1483 1481 1479 1476 1472 1468 1462 1458 1455 1452 1450 1447 1444 1440 1437 1435 1431 1428 1426 1424 1422 1420 1419 1418 1417
1516 1514 1512 1509 1506 1504 1501 1498 1495 1494 1492 1489 1490 1489 1486 1485 1483 1481 1478 1476 1474 1470 1467 1462 1458 1454 1451 1449 1446 1442 1439 1435 1428 1427 1425 1419 1420 1416 1414 1412 1411 1410 1409
1510 1509 1506 1503 1500 1497 1495 1492 1490 1488 1486 1484 1485 1483 1481 1480 1478 1476 1474 1473 1470 1467 1463 1458 1453 1451 1447 1444 1441 1437 1434 1430 1426 1422 1421 1414 1414 1409 1407 1405 1404 1403 1402
1505 1503 1501 1498 1494 1492 1489 1486 1485 1484 1483 1481 1479 1478 1476 1475 1473 1471 1469 1467 1464 1461 1457 1452 1450 1446 1443 1440 1437 1433 1430 1425 1422 1419 1418 1412 1409 1405 1402 1399 1397 1395 1395
1500 1497 1493 1491 1489 1486 1483 1481 1479 1479 1478 1477 1475 1473 1471 1469 1467 1465 1463 1461 1458 1455 1451 1448 1445 1442 1439 1436 1433 1429 1426 1422 1417 1414 1413 1410 1405 1401 1397 1394 1392 1390 1389
1495 1492 1489 1487 1484 1480 1477 1475 1475 1474 1473 1472 1470 1467 1465 1464 1462 1461 1458 1456 1452 1449 1446 1443 1441 1437 1434 1431 1429 1427 1423 1419 1415 1409 1409 1406 1401 1399 1392 1390 1389 1387 1385
Wind_Speed
6 6 8 6 7 8 9 8 10 11 12 13 13 15 11 10 10 12 16 19 21 23 25 26 19 15 17 19 19 17 15 14 13 10 10 11 12 13 15 15 14 14 15
2 4 5 6 5 6 7 9 11 13 14 14 14 14 15 18 19 18 19 23 23 21 22 20 16 18 20 21 22 19 16 14 12 9 10 8 10 11 14 17 17 17 17
1 2 3 3 3 6 8 10 11 11 13 16 17 15 11 14 18 20 19 12 18 23 21 21 21 21 22 24 22 21 18 15 12 8 10 9 9 11 14 16 17 19 19
3 4 2 1 4 8 10 14 15 17 16 16 16 13 14 17 19 16 19 17 17 23 20 19 23 24 25 24 21 16 16 12 12 12 12 13 13 11 11 15 20 20 20
3 1 3 7 8 8 11 14 17 18 19 19 20 20 21 20 18 18 17 15 12 12 13 17 19 18 15 15 11 15 19 11 11 13 15 17 15 15 15 15 19 22 25
1 5 6 9 10 10 12 17 19 22 22 21 23 21 23 20 11 10 11 12 10 8 4 7 11 13 13 17 15 13 11 7 15 18 13 13 15 17 15 16 17 19 22
3 0 4 9 13 16 17 18 18 21 25 28 27 32 29 15 24 7 14 15 18 18 13 15 12 13 13 8 5 7 8 10 10 15 17 24 16 17 14 16 17 18 21
5 7 7 12 17 17 17 19 21 23 25 24 25 28 21 33 10 21 21 25 24 25 26 22 18 16 15 15 17 19 21 21 20 21 23 24 26 19 15 15 17 19 20
9 12 17 20 18 20 19 21 21 22 22 23 27 21 19 12 32 26 31 25 25 26 24 22 19 15 17 20 20 20 23 24 22 19 20 17 20 21 18 18 18 20 21
14 16 19 20 21 19 19 18 17 20 24 25 22 21 26 28 29 26 19 27 27 25 24 23 20 20 20 22 21 19 22 18 16 20 21 20 19 18 19 20 20 21 22
9 12 16 14 11 12 14 15 17 18 22 25 26 27 27 29 28 30 30 23 26 21 21 22 23 24 24 20 17 18 18 19 22 24 23 18 18 19 19 20 20 21 23
10 10 9 9 10 14 17 21 24 25 26 28 30 29 27 24 27 24 29 30 26 25 21 19 20 22 21 20 19 18 18 23 23 21 21 19 17 19 21 22 24 26 26
15 17 18 19 21 24 27 26 25 24 24 24 26 27 25 27 24 25 23 25 23 22 22 21 23 21 20 18 21 20 17 17 18 20 21 22 24 23 25 27 29 29 29
19 19 22 23 25 25 26 24 24 26 26 23 23 24 25 26 21 23 19 20 19 23 28 27 26 24 20 21 23 25 29 30 30 27 23 24 26 28 28 28 29 29 29
19 19 21 22 23 22 23 22 22 23 23 23 23 24 20 19 17 17 16 14 14 20 28 29 31 24 22 26 27 26 30 34 36 37 37 36 36 30 28 27 28 28 28
18 20 20 21 21 21 19 19 20 20 20 21 22 23 20 20 16 17 18 19 14 18 28 26 24 23 24 25 24 26 28 32 35 38 42 38 30 28 30 33 35 31 29
19 19 21 22 22 20 20 20 22 24 26 25 23 22 22 18 16 17 17 16 17 19 23 31 32 34 36 35 30 27 31 35 36 36 30 28 28 27 28 29 29 28 29
17 19 21 22 23 20 21 24 26 30 27 26 20 19 13 14 13 14 16 17 20 24 28 35 39 38 36 32 28 29 33 33 28 26 24 23 23 21 23 23 24 25 26
21 23 23 24 16 21 24 26 28 27 24 12 11 12 13 13 16 18 19 22 26 29 32 30 31 32 34 28 27 25 24 25 23 24 24 25 27 27 29 29 26 25 23
21 22 23 19 21 24 27 29 29 22 20 15 13 13 13 14 15 18 23 26 27 28 28 29 34 36 32 27 25 26 29 26 28 27 27 26 25 25 26 26 27 26 25
20 21 19 20 23 27 28 30 24 23 18 16 16 14 13 17 20 23 24 24 27 26 29 32 35 34 31 28 28 27 24 27 32 33 34 31 28 29 28 25 23 22 22
19 20 22 25 26 29 29 29 22 26 26 24 16 17 17 19 22 22 23 24 24 28 30 31 28 28 28 25 20 30 34 36 39 32 25 26 23 26 24 22 22 23 22
19 19 18 22 26 28 30 25 23 24 22 13 13 15 18 20 22 22 24 26 27 26 27 24 22 23 27 27 29 30 31 27 28 28 26 30 25 24 23 21 21 22 21
23 24 26 25 27 30 26 27 23 19 15 12 16 19 21 22 24 23 25 25 26 27 24 17 17 23 28 27 20 22 25 27 27 24 22 27 27 25 25 20 19 19 18
24 23 20 21 25 28 29 29 20 17 16 18 20 21 21 22 21 22 23 26 27 24 21 17 17 15 15 14 16 19 21 23 26 27 25 22 27 30 24 23 14 15 13
25 23 23 23 27 31 33 20 18 18 20 20 23 21 18 17 19 21 23 25 26 21 19 16 15 17 12 14 15 16 18 21 24 28 24 26 28 25 24 24 15 20 24
Wind_Direction
196 216 231 243 243 256 270 265 276 274 282 282 284 293 296 305 314 302 298 299 303 310 309 310 305 311 317 320 324 324 319 316 321 338 311 287 272 269 270 269 269 271 267
244 243 252 256 262 286 294 295 291 295 300 303 303 294 291 290 290 292 298 302 307 307 309 303 308 312 314 323 317 315 316 321 331 345 328 311 284 272 265 263 262 260 263
36 220 224 250 270 284 291 298 312 322 319 313 310 316 308 301 304 309 311 314 304 311 311 302 303 310 319 322 327 322 320 321 353 335 326 319 316 282 268 259 259 259 256
117 136 153 255 304 309 326 329 327 325 326 328 328 325 312 310 318 327 315 300 305 314 305 301 308 311 309 316 326 332 341 345 336 356 2 359 346 339 311 278 254 253 257
147 180 6 8 356 332 324 324 321 327 332 328 324 320 317 321 323 327 340 330 296 342 310 310 317 311 323 327 333 318 323 335 349 344 335 331 333 333 324 315 278 259 253
43 17 359 350 343 329 326 325 326 327 328 328 323 322 324 328 333 327 324 329 339 345 12 355 327 332 319 318 324 324 322 319 318 324 345 346 336 332 333 327 318 289 263
142 308 324 316 323 324 325 323 322 325 325 325 329 327 329 333 332 306 318 320 315 313 305 319 319 327 323 315 299 303 306 320 316 304 315 314 333 329 328 323 324 320 293
289 319 314 329 328 321 320 323 322 319 324 330 327 329 329 324 320 317 306 309 310 309 308 309 303 307 311 322 317 313 311 308 307 308 309 310 304 316 324 321 317 317 316
309 324 325 323 319 316 314 321 327 326 319 314 318 321 321 306 313 313 314 310 307 308 307 303 302 307 304 299 304 309 307 307 302 306 307 305 301 305 314 313 310 307 306
311 310 313 314 311 316 323 323 319 311 305 306 305 303 299 295 307 310 300 304 303 303 298 296 298 295 301 309 314 311 308 301 299 300 303 301 302 305 304 306 308 301 297
284 303 310 311 312 296 293 296 298 302 304 305 303 307 306 292 290 297 306 302 300 298 299 295 292 301 303 307 319 315 305 304 303 298 300 301 297 297 299 302 306 301 291
249 274 277 267 264 275 283 291 294 298 303 304 302 300 309 293 293 293 291 291 296 298 294 293 303 308 304 306 308 302 306 301 305 302 298 295 293 295 295 296 298 298 295
256 269 267 276 281 288 293 297 296 295 297 304 300 297 299 294 290 286 278 288 289 293 293 295 307 308 301 297 297 304 296 303 299 297 291 288 288 290 291 293 294 293 292
267 268 273 277 282 289 292 296 295 294 296 301 294 293 297 296 285 284 290 283 286 284 289 299 306 308 309 295 293 290 288 290 291 291 287 286 290 291 291 289 289 289 287
274 275 278 283 288 294 296 297 297 299 301 299 293 297 298 301 296 281 265 274 292 297 297 302 308 315 306 300 299 300 295 292 291 292 291 290 292 293 289 285 286 285 279
276 281 287 293 294 299 299 292 294 295 290 291 293 296 291 291 287 272 261 267 285 300 296 302 304 300 297 294 293 296 291 288 289 292 293 296 291 284 280 284 285 281 279
279 281 286 289 298 302 296 295 294 295 294 290 287 288 290 292 270 266 265 278 291 288 288 291 291 293 295 298 296 289 288 290 297 302 297 295 295 292 287 285 286 283 279
273 281 288 292 303 299 295 295 297 306 306 298 297 297 293 297 297 295 295 291 289 291 296 301 300 300 301 302 296 291 292 298 300 299 300 296 297 297 292 290 290 285 273
284 288 290 301 300 290 290 291 297 310 308 316 313 297 293 294 291 292 294 292 294 296 299 303 304 307 310 309 304 306 305 303 298 298 297 296 294 290 287 284 287 287 286
291 293 298 301 291 289 293 300 311 308 293 295 294 282 282 292 291 288 291 297 301 307 313 312 311 313 317 316 310 312 311 307 302 301 301 300 299 295 291 288 283 283 281
293 297 296 288 288 291 297 308 305 299 265 269 277 272 282 287 287 293 297 300 306 313 313 314 311 310 313 317 316 315 308 308 304 303 306 303 298 298 293 291 286 283 285
291 294 293 292 289 296 300 311 299 298 292 268 280 273 278 282 287 289 296 306 309 312 312 312 306 306 310 314 313 306 309 312 313 315 315 306 310 309 303 291 283 278 282
292 289 292 297 297 299 306 308 301 303 288 281 279 274 279 280 284 286 289 294 301 308 313 309 301 303 303 303 305 308 310 310 308 312 317 310 334 321 322 302 291 284 280
294 294 292 290 294 300 304 312 295 292 284 280 282 289 282 282 284 285 293 300 307 315 315 309 292 296 298 306 313 309 307 309 311 318 327 312 322 320 320 316 299 291 281
304 306 296 288 296 298 303 307 288 281 283 285 291 295 284 276 280 290 296 302 310 318 316 312 310 311 308 307 316 313 316 315 312 309 311 310 313 316 315 326 324 328 282
307 301 301 293 294 298 305 294 283 288 287 291 298 295 284 280 284 288 296 306 312 317 321 325 325 329 322 322 319 311 313 314 313 314 322 318 313 318 316 323 311 317 308